This is the latest recevied weather packets stored in our database for station/object G4WLC-1. If no packets are shown the sender has not sent any weather packets the latest 10 day(s).
| Time | Temp. | Humidity | Pressure | Rain* | Wind** | Luminosity | Snow |
|---|---|---|---|---|---|---|---|
| 1787854643 | 20° C | 75% | 1006.8 hPa | 0 mm | - | - | - |
| 1787854343 | 20° C | 74% | 1006.8 hPa | 0 mm | - | - | - |
| 1787854043 | 20.56° C | 75% | 1006.8 hPa | 0 mm | - | - | - |
| 1787853743 | 20.56° C | 74% | 1006.9 hPa | 0 mm | - | - | - |
| 1787852843 | 21.11° C | 75% | 1006.8 hPa | 0 mm | - | - | - |
| 1787852543 | 21.11° C | 77% | 1006.9 hPa | 0 mm | - | - | - |
| 1787851943 | 20.56° C | 77% | 1007 hPa | 0 mm | - | - | - |
| 1787851643 | 20.56° C | 78% | 1007.2 hPa | 0 mm | - | - | - |
| 1787851343 | 21.11° C | 78% | 1007.2 hPa | 0 mm | - | - | - |
| 1787851043 | 21.67° C | 77% | 1007.1 hPa | 0 mm | - | - | - |
| 1787850743 | 22.22° C | 75% | 1006.9 hPa | 0 mm | - | - | - |
| 1787850443 | 22.78° C | 76% | 1006.8 hPa | 0 mm | - | - | - |
| 1787850143 | 23.33° C | 74% | 1006.8 hPa | 0 mm | - | - | - |
| 1787849843 | 23.33° C | 73% | 1006.7 hPa | 0 mm | - | - | - |
| 1787849543 | 22.78° C | 75% | 1006.5 hPa | 0 mm | - | - | - |
| 1787849243 | 22.78° C | 77% | 1006.5 hPa | 0 mm | - | - | - |
| 1787848943 | 22.78° C | 77% | 1006.5 hPa | 0 mm | - | - | - |
| 1787848643 | 22.78° C | 78% | 1006.5 hPa | 0 mm | - | - | - |
| 1787848343 | 22.78° C | 78% | 1006.6 hPa | 0 mm | - | - | - |
| 1787848043 | 22.78° C | 77% | 1006.7 hPa | 0 mm | - | - | - |
| 1787847743 | 22.78° C | 77% | 1006.9 hPa | 0 mm | - | - | - |
| 1787847443 | 22.78° C | 80% | 1007 hPa | 0 mm | - | - | - |
| 1787847143 | 21.67° C | 80% | 1007 hPa | 0 mm | - | - | - |
| 1787846843 | 21.67° C | 82% | 1007 hPa | 0 mm | - | - | - |
| 1787846543 | 21.67° C | 83% | 1007 hPa | 0 mm | - | - | - |
* Rain latest hour (hover to see other rain measurements)
** Current wind speed in m/s (hover to see current wind gust speed)